Details From GCTS - Tenerife Sur
To GCLA - La Palma
Flight Number -
Tags generated
Created
Modified
Stats Distance 74 nm / 138 km
Max Altitude 2,300 ft / 701 m
Waypoints 3
Social Downloads 1
Likes 0
Share VATSIM

Download

Looking for another format? Having issues loading an existing format? Contact us
Advertisement - Login to hide

Notes

Basic altitude profile: - Ascent Rate: 2500ft/min - Ascent Speed: 250kts - Cruise Altitude: 35000ft - Cruise Speed: 420kts - Descent Rate: 1500ft/min - Descent Speed: 250kts Options: - Use NATs: yes - Use PACOTS: yes - Use low airways: yes - Use high airways: yes

Route

GCTS TFS GCLA

ID Type Via Altitude (ft/m) Position (lat/lon) Dist (leg/tot) Name
O GCTS APT - 0 / 0 28.04448 / -16.57249 - / 0 nm Tenerife Sur
TFS VOR - 2,300 / 701 28.00245 / -16.68793 6 / 6 nm TENERIFE SUR VOR-DME
O GCLA APT - 0 / 0 28.62648 / -17.75561 67 / 74 nm La Palma

Altitude Profile

Advertisement - Login to hide

GCTS

Details ICAO GCTS (TFS)
Name Tenerife Sur
Region Canary Islands
Timezone Atlantic/Canary (UTC+1.0)
Stats Elevation 208 ft / 63 m (AMSL)
Location 28.044400° -16.572500°
Runways 1
Magnetic Variation 4.902° W

METAR

GCTS 190900Z 04003KT 340V110 9999 FEW025 23/15 Q1018 NOSIG

Decode

TAF

TAF GCTS 190800Z 1909/2009 35006KT 9999 FEW025 TX26/1914Z TN19/2005Z BECMG 1909/1912 09016KT BECMG 1919/1921 VRB05KT

Decode

Departure Runways

ID Width Length Bearing (true/mag) Surface Threshold Overrun Markings Lighting
08 148 ft / 45 m 10,489 ft / 3,197 m 68.47° / 73.38° ASPHALT 0 ft / 0 m 0 ft / 0 m PREC-APP CENTERLINE EDGE THRESHOLD CALVERT-ILS REIL-OMNI
26 148 ft / 45 m 10,489 ft / 3,197 m 248.49° / 253.39° ASPHALT 0 ft / 0 m 0 ft / 0 m PREC-APP CENTERLINE EDGE THRESHOLD CALVERT-ILS REIL-OMNI

GCLA

Details ICAO GCLA (SPC)
Name La Palma
Region Canary Islands
Timezone Atlantic/Canary (UTC+1.0)
Stats Elevation 106 ft / 32 m (AMSL)
Location 28.626400° -17.755600°
Runways 1
Magnetic Variation 5.303° W

METAR

GCLA 190900Z 02007KT 340V050 9999 FEW035 23/16 Q1019

Decode

TAF

TAF GCLA 190800Z 1909/2009 04008KT 9999 SCT035 TX25/1914Z TN20/2006Z

Decode

Destination Runways

ID Width Length Bearing (true/mag) Surface Threshold Overrun Markings Lighting
18 148 ft / 45 m 7,225 ft / 2,202 m 179.01° / 184.31° ASPHALT 0 ft / 0 m 279 ft / 85 m UK-PREC-APP CENTERLINE EDGE THRESHOLD SALS
36 148 ft / 45 m 7,225 ft / 2,202 m 359.01° / 4.31° ASPHALT 0 ft / 0 m 243 ft / 74 m PREC-APP CENTERLINE EDGE THRESHOLD

Popular Alternatives